TimeAKDT,TemperatureF,Dew PointF,Humidity,Sea Level PressureIn,VisibilityMPH,Wind Direction,Wind SpeedMPH,Gust SpeedMPH,PrecipitationIn,Events,Conditions,WindDirDegrees,DateUTC
12:32 AM,37.4,33.8,87,29.98,10.0,Calm,Calm,-,N/A,,Overcast,0,2013-04-19 08:32:00
12:53 AM,37.9,32.0,79,29.99,10.0,Calm,Calm,-,N/A,,Mostly Cloudy,0,2013-04-19 08:53:00
1:53 AM,37.0,32.0,82,30.00,10.0,Calm,Calm,-,N/A,,Clear,0,2013-04-19 09:53:00
2:53 AM,37.0,30.0,76,30.01,10.0,Calm,Calm,-,N/A,,Partly Cloudy,0,2013-04-19 10:53:00
3:53 AM,37.0,27.0,67,30.03,10.0,Calm,Calm,-,N/A,,Clear,0,2013-04-19 11:53:00
4:53 AM,36.0,27.0,70,30.04,10.0,Calm,Calm,-,N/A,,Clear,0,2013-04-19 12:53:00
5:53 AM,34.0,28.0,79,30.05,10.0,Calm,Calm,-,N/A,,Clear,0,2013-04-19 13:53:00
6:53 AM,36.0,28.0,73,30.06,10.0,Calm,Calm,-,N/A,,Partly Cloudy,0,2013-04-19 14:53:00
7:53 AM,39.0,25.0,57,30.08,10.0,Variable,3.5,-,N/A,,Clear,0,2013-04-19 15:53:00
8:53 AM,39.9,25.0,55,30.09,10.0,NNW,6.9,-,N/A,,Clear,330,2013-04-19 16:53:00
9:53 AM,43.0,25.0,49,30.10,10.0,NNW,5.8,-,N/A,,Clear,330,2013-04-19 17:53:00
10:53 AM,44.1,21.9,42,30.12,10.0,NW,4.6,-,N/A,,Clear,320,2013-04-19 18:53:00
11:53 AM,44.1,27.0,51,30.13,10.0,SW,8.1,-,N/A,,Clear,220,2013-04-19 19:53:00
12:53 PM,46.9,27.0,46,30.14,10.0,WSW,11.5,16.1,N/A,,Clear,250,2013-04-19 20:53:00
1:53 PM,46.9,27.0,46,30.16,10.0,SW,9.2,20.7,N/A,,Clear,230,2013-04-19 21:53:00
2:53 PM,46.9,27.0,46,30.16,10.0,WSW,13.8,20.7,N/A,,Clear,250,2013-04-19 22:53:00
3:53 PM,46.9,26.1,44,30.17,10.0,West,15.0,18.4,N/A,,Clear,260,2013-04-19 23:53:00
4:53 PM,46.0,26.1,46,30.18,10.0,WSW,9.2,19.6,N/A,,Clear,250,2013-04-20 00:53:00
6:53 PM,42.1,27.0,55,30.19,10.0,WSW,8.1,-,N/A,,Clear,250,2013-04-20 02:53:00
7:53 PM,39.9,26.1,58,30.19,10.0,Calm,Calm,-,N/A,,Clear,0,2013-04-20 03:53:00
8:53 PM,36.0,27.0,70,30.21,10.0,South,3.5,-,N/A,,Clear,190,2013-04-20 04:53:00
9:53 PM,34.0,27.0,75,30.22,10.0,South,4.6,-,N/A,,Clear,180,2013-04-20 05:53:00
10:53 PM,32.0,27.0,82,30.24,10.0,Calm,Calm,-,N/A,,Clear,0,2013-04-20 06:53:00
11:53 PM,30.0,27.0,88,30.25,10.0,Calm,Calm,-,N/A,,Clear,0,2013-04-20 07:53:00